Location: Caoba
(9.7667°N, 67.4833°W)
Time: 19:21:09
(UTC+00:00)

GOES 2 Rocket - Pass Details

Date: 08 December 2024
Orbit: 569 x 1662 km, 28.4° (Epoch: 14 January)

Event Time Altitude Azimuth Distance (km) Brightness Sun altitude
Rises 22:55:46 0° 216° (SW) 4,828 8.7 -11.4°
Reaches altitude 10° 22:59:55 10° 204° (SSW) 3,746 7.7 -12.4°
Maximum altitude 23:07:26 25° 154° (SSE) 2,491 6.1 -14.1°
Enters shadow 23:13:10 12° 105° (ESE) 3,015 6.1 -15.4°
